Regional Weather Roundup
Issued by NWS

Home | Current Version | Previous Version | Graphics & Text | Print | Product List | Glossary On
Versions: 1 2 3 4 5 6 7 8 9 10 11 12 13 14 15 16 17 18 19 20 21 22 23 24 25 26 27 28 29 30 31 32 33 34 35 36 37 38 39 40 41 42 43 44 45 46 47 48 49 50
000
ASUS43 KMKX 012210
RWRWI

WISCONSIN REGIONAL WEATHER ROUNDUP
NATIONAL WEATHER SERVICE MILWAUKEE/SULLIVAN WI
400 PM CST SUN MAR 01 2015

NOTE: "FAIR" INDICATES FEW OR NO CLOUDS BELOW 12,000 FEET WITH NO
SIGNIFICANT WEATHER AND/OR OBSTRUCTIONS TO VISIBILITY.

WIZ001-002-006>008-014>016-023>028-012300-
NORTHWEST WISCONSIN

CITY           SKY/WX    TMP DP  RH WIND       PRES   REMARKS
SUPERIOR ARPT  PTSUNNY   25   7  47 W13G20    30.14S WCI  13
ASHLAND        SUNNY     26   4  38 W16       30.10S WCI  14
HAYWARD        SUNNY     24   1  36 W12G20    30.12R WCI  13
SIREN          SUNNY     24   6  46 W9G20     30.18R WCI  15
CUMBERLAND     MOSUNNY   21   5  49 W21       30.16R WCI   6
RICE LAKE      SUNNY     24   5  45 W16       30.19S WCI  10
CHETEK         SUNNY     24   6  45 W10G18    30.18S WCI  13
LADYSMITH      SUNNY     24   6  45 SW12      30.15R WCI  13
EAU CLAIRE     SUNNY     24   7  48 W16       30.20R WCI  11
MENOMONIE      SUNNY     26   6  42 SW14G22   30.21S WCI  15
NEW RICHMOND   MOSUNNY   25   8  48 W17G23    30.20F WCI  12
OSCEOLA        PTSUNNY   27  10  49 W15       30.23S WCI  15
$$

WIZ003>005-009-010-017-018-012300-
NORTH CENTRAL WISCONSIN

CITY           SKY/WX    TMP DP  RH WIND       PRES   REMARKS
MANITOWISH WTR PTSUNNY   21   7  55 W13G20    30.05S WCI   9
ARBOR VITAE    PTSUNNY   22  10  60 W10       30.05F WCI  11
WOODRUFF       PTSUNNY   22  10  60 W10       30.05F WCI  11
RHINELANDER    CLOUDY    18   8  65 W17       30.07S WCI   3
EAGLE RIVER    CLOUDY    19   7  60 W17       30.04S WCI   4
LAND O LAKES   CLOUDY    20   8  58 W9G17     30.04S WCI  10
PHILLIPS       PTSUNNY   22   8  54 SW12G17   30.08F WCI  10
TOMAHAWK       MOSUNNY   20   8  59 W12G17    30.11S WCI   8
MEDFORD        MOSUNNY   20   8  61 W10       30.11F WCI   8
MERRILL        CLOUDY    20  10  66 W10       30.12S WCI   9
$$

WIZ029-030-035-036-043>047-012300-
CENTRAL WISCONSIN

CITY           SKY/WX    TMP DP  RH WIND       PRES   REMARKS
WAUSAU         CLOUDY    19  10  68 W16       30.13S WCI   4
MOSINEE        FLURRIES  19  14  79 W10       30.15F WCI   8
MARSHFIELD     SUNNY     23  10  57 W12       30.15F WCI  12
STEVENS POINT  FLURRIES  19  11  69 W13       30.16F WCI   7
WAUPACA        PTSUNNY   27  14  58 SW20      30.18S WCI  13
WAUTOMA        CLOUDY    25  15  65 W14       30.19S WCI  13
WISC RAPIDS    CLOUDY    23  11  60 W12       30.19S WCI  12
CAMP DOUGLAS   MOSUNNY   26  13  59 W13       30.19F WCI  15
$$

WIZ011>013-019>022-031-037>040-048>050-012300-
NORTHEAST WISCONSIN

CITY           SKY/WX    TMP DP  RH WIND       PRES   REMARKS
ANTIGO         FLURRIES  17  10  74 W13       30.10S WCI   4
SHAWANO        CLOUDY    26  14  60 W12G21    30.15S WCI  16
OCONTO         CLOUDY    27  16  62 W16G24    30.13F WCI  15
STURGEON BAY   CLOUDY    27  16  63 SW14      30.15F WCI  15
GREEN BAY      FLURRIES  28  17  63 W14G22    30.15S WCI  17
MANITOWOC      MOSUNNY   29  18  63 SW12      30.16F WCI  19
APPLETON       PTSUNNY   28  16  59 W18       30.15S WCI  16
CLINTONVILLE   CLOUDY    27  14  59 W14G21    30.15S WCI  15
OSHKOSH        PTSUNNY   27  15  61 W8G20     30.16F WCI  19
$$

WIZ032>034-041-042-053>061-012300-
SOUTHWEST WISCONSIN

CITY           SKY/WX    TMP DP  RH WIND       PRES   REMARKS
LA CROSSE      SUNNY     25   8  48 W14       30.26R WCI  13
SPARTA         SUNNY     26   7  45 W10G20    30.23S WCI  15
VIROQUA        SUNNY     24  10  55 W16       30.21S WCI  10
BOSCOBEL       MIX PCPN  27  10  49 W14G22    30.27R WCI  16
PRAIRIE DU CHI MIX PCPN  24  10  53 W18G24    30.30R WCI  11
PLATTEVILLE    MOSUNNY   26  19  73 SW17      30.25S WCI  13
$$

WIZ056-057-062-063-064-067-068-012300-
SOUTH CENTRAL WISCONSIN

CITY           SKY/WX    TMP DP  RH WIND       PRES   REMARKS
REEDSBURG      MOSUNNY   27  14  59 W14G23    30.20F WCI  15
BARABOO/DELLS  PTSUNNY   27  15  60 W15       30.18F WCI  15
LONE ROCK      SUNNY     28  14  55 W14       30.23F WCI  17
MINERAL POINT  SUNNY     28  18  64 W17       30.22R WCI  16
MADISON        PTSUNNY   27  16  63 SW9G17    30.21F WCI  18
MIDDLETON      PTSUNNY   29  16  56 SW15G21   30.21S WCI  18
WATERTOWN      CLOUDY    26  16  66 SW12      30.20F WCI  15
MONROE         MOSUNNY   28  19  69 SW21G29   30.22F WCI  15
JANESVILLE     MOSUNNY   27  16  63 SW10      30.24F WCI  17
$$

WIZ051-052-058>065-066-070>072-012300-
SOUTHEAST WISCONSIN

CITY           SKY/WX    TMP DP  RH WIND       PRES   REMARKS
MILWAUKEE      MOSUNNY   26  13  57 SW15      30.22F WCI  14
WAUKESHA       MOSUNNY   25  12  58 SW12G17   30.21F WCI  14
MILWAUKEE/TIMM SUNNY     28  14  54 SW14      30.22S WCI  17
RACINE         SUNNY     26  14  60 SW10      30.23F WCI  16
BURLINGTON     SUNNY     24  13  64 W14       30.23F WCI  12
KENOSHA        MOSUNNY   25  14  63 W14       30.22F WCI  13
FOND DU LAC    CLOUDY    28  15  58 W13G21    30.17F WCI  17
SHEBOYGAN      SUNNY     26  15  63 SW17      30.17F WCI  13
WEST BEND      PTSUNNY   27  14  59 SW10      30.18F WCI  17
JUNEAU         CLOUDY    27  16  65 SW16      30.20F WCI  14
$$

LSZ147-162-012300-
LAKE SUPERIOR

STATION/POSITION TIME  TEMP    WIND        PRES    WAVE
                       AIR SEA DIR/SP/G            HT/PER
                 (UTC) (F)     (DEG/KT/KT) (MB)    (FT/S)
DEVILS ISLAND    2200   24     250/ 21/ 28 1019.2S
PORT WING        2100   25     250/ 14/ 20 1020.0S
SAXON HARBOR     2100   27     280/  7/ 14 1019.0F
$$

LMZ867-665-643>646-012300-
LAKE MICHIGAN

STATION/POSITION TIME  TEMP    WIND        PRES    WAVE
                       AIR SEA DIR/SP/G            HT/PER
                 (UTC) (F)     (DEG/KT/KT) (MB)    (FT/S)
NORTHPORT PIER   2200   27     210/  7/ 16 1019.6F
SISTER BAY       2143   30     220/ 17/ 23   N/A
KEWAUNEE LAKESHO 2100   27     230/ 10/ 16 1020.6
SHEBOYGAN LAKESH 2200   27     230/ 15/ 19 1023.2F
PORT WASHINGTON  2100   29     220/  9/ 15 1023.4F
MILWAUKEE LAKESH 2100   28     260/  8/ 12   N/A
KENOSHA   LAKESH 2200   26     240/ 11/ 15 1023.7F
$$

TC  - TEMPERATURE IN CELSIUS
VSB - VISIBILITY IN STATUTE MILES
WCI - WIND CHILL INDEX
HX  - HEAT INDEX




USA.gov is the U.S. government's official web portal to all federal, state and local government web resources and services.